FW9372 Weather Reports


Display with metric or nautical units.
time (UTC)temp
F
wind
direction
speed
MPH
gust
MPH
rain 1hr
in
rain 24hr
in
rain mn
in
humidity
%
barometer
mb
20260903201605 97 0 0.0 0.0 0.00 0.00 0.00 53 1013.1
20260903200108 97 0 0.0 1.0 0.00 0.00 0.00 54 1013.3
20260903194608 97 0 0.0 0.0 0.00 0.00 0.00 54 1013.3
20260903193110 96 0 0.0 1.0 0.00 0.00 0.00 52 1013.5
20260903191606 97 0 0.0 6.0 0.00 0.00 0.00 53 1013.6
20260903190107 95 0 0.0 1.0 0.00 0.00 0.00 56 1013.8
20260903184606 96 248 0.0 0.0 0.00 0.00 0.00 57 1013.9
20260903183106 95 0 0.0 2.0 0.00 0.00 0.00 58 1014.0
20260903181609 96 0 0.0 0.0 0.00 0.00 0.00 60 1014.1
20260903180107 95 0 0.0 1.0 0.00 0.00 0.00 59 1014.2
20260903174608 95 0 0.0 1.0 0.00 0.00 0.00 60 1014.3
20260903173106 94 0 0.0 1.0 0.00 0.00 0.00 61 1014.5
20260903171617 94 0 0.0 1.0 0.00 0.00 0.00 63 1014.6
20260903170107 93 0 0.0 1.0 0.00 0.00 0.00 62 1014.9
20260903164623 93 0 0.0 1.0 0.00 0.00 0.00 66 1014.9
20260903163108 93 0 0.0 0.0 0.00 0.00 0.00 67 1015.0
20260903161608 91 0 0.0 3.0 0.00 0.00 0.00 68 1015.1
20260903160130 91 0 0.0 0.0 0.00 0.00 0.00 70 1015.2
20260903154611 90 0 0.0 2.0 0.00 0.00 0.00 71 1015.3
20260903153112 90 0 0.0 0.0 0.00 0.00 0.00 71 1015.2
20260903151611 89 0 0.0 0.0 0.00 0.00 0.00 72 1015.1
20260903150113 88 0 0.0 0.0 0.00 0.00 0.00 71 1015.2
20260903144606 88 0 0.0 0.0 0.00 0.00 0.00 79 1015.1
20260903143112 85 0 0.0 0.0 0.00 0.00 0.00 84 1015.1
20260903141614 82 0 0.0 0.0 0.00 0.00 0.00 89 1015.2
20260903140110 79 0 0.0 0.0 0.00 0.00 0.00 94 1015.3
20260903134607 78 0 0.0 0.0 0.00 0.00 0.00 98 1015.4
20260903133108 76 0 0.0 0.0 0.00 0.00 0.00 99 1015.5
20260903131608 74 0 0.0 0.0 0.00 0.00 0.00 100 1015.6
20260903130106 73 0 0.0 0.0 0.00 0.00 0.00 99 1015.7
20260903124609 72 0 0.0 0.0 0.00 0.00 0.00 99 1015.7
20260903123110 71 0 0.0 0.0 0.00 0.00 0.00 99 1015.7
20260903121608 71 0 0.0 0.0 0.00 0.00 0.00 99 1015.7
20260903120109 70 0 0.0 0.0 0.00 0.00 0.00 99 1015.5
20260903114609 69 0 0.0 0.0 0.00 0.00 0.00 99 1015.4
20260903113105 69 0 0.0 0.0 0.00 0.00 0.00 99 1015.4
20260903111606 69 0 0.0 0.0 0.00 0.00 0.00 99 1015.3
20260903110106 70 0 0.0 0.0 0.00 0.00 0.00 99 1015.1
20260903104609 69 0 0.0 0.0 0.00 0.00 0.00 99 1015.0
20260903103110 69 0 0.0 0.0 0.00 0.00 0.00 99 1014.9
20260903101611 70 0 0.0 0.0 0.00 0.00 0.00 99 1014.9
20260903100109 70 0 0.0 0.0 0.00 0.00 0.00 99 1014.7
20260903094634 70 0 0.0 0.0 0.00 0.00 0.00 99 1014.8
20260903093112 70 0 0.0 0.0 0.00 0.00 0.00 99 1014.8
20260903091602 70 0 0.0 0.0 0.00 0.00 0.00 99 1014.5
20260903090107 70 0 0.0 0.0 0.00 0.00 0.00 99 1014.6
20260903084607 71 0 0.0 0.0 0.00 0.00 0.00 99 1014.6
20260903083103 70 0 0.0 0.0 0.00 0.00 0.00 99 1014.6
20260903081606 71 0 0.0 0.0 0.00 0.00 0.00 98 1014.5
20260903080107 71 0 0.0 0.0 0.00 0.00 0.00 98 1014.5
20260903074605 71 0 0.0 0.0 0.00 0.00 0.00 98 1014.3
20260903073106 71 0 0.0 0.0 0.00 0.00 0.00 98 1014.2
20260903071611 71 0 0.0 0.0 0.00 0.00 0.00 98 1014.2
20260903070114 71 0 0.0 0.0 0.00 0.00 0.00 98 1014.1
20260903064602 72 0 0.0 0.0 0.00 0.00 0.00 98 1014.1
20260903063126 72 0 0.0 0.0 0.00 0.00 0.00 98 1014.2
20260903061606 72 0 0.0 0.0 0.00 0.00 0.00 98 1014.2
20260903060117 72 0 0.0 0.0 0.00 0.00 0.00 98 1014.2
20260903054609 72 0 0.0 0.0 0.00 0.00 0.00 98 1014.2
20260903053107 72 0 0.0 0.0 0.00 0.00 0.00 98 1014.1
20260903051608 72 0 0.0 0.0 0.00 0.00 0.00 98 1014.1
20260903050128 73 0 0.0 0.0 0.00 0.00 0.00 97 1014.1
20260903044606 73 0 0.0 0.0 0.00 0.00 0.00 97 1014.0
20260903043106 73 0 0.0 0.0 0.00 0.00 0.00 97 1014.0
20260903041608 73 0 0.0 0.0 0.00 0.00 0.00 97 1014.1
20260903040110 74 0 0.0 0.0 0.00 0.00 0.00 97 1014.0
20260903034607 73 0 0.0 0.0 0.00 0.00 0.00 96 1014.3
20260903033104 74 0 0.0 0.0 0.00 0.00 0.00 96 1014.1
20260903031605 74 0 0.0 0.0 0.00 0.00 0.00 95 1014.1
20260903030108 74 0 0.0 0.0 0.00 0.00 0.00 95 1014.1
20260903024603 75 0 0.0 0.0 0.00 0.00 0.00 95 1014.2
20260903023107 75 0 0.0 0.0 0.00 0.00 0.00 94 1014.2
20260903021612 75 0 0.0 0.0 0.00 0.00 0.00 93 1014.1
20260903020106 75 0 0.0 0.0 0.00 0.00 0.00 92 1014.1
20260903014607 76 0 0.0 0.0 0.00 0.00 0.00 91 1014.1
20260903013107 76 0 0.0 0.0 0.00 0.00 0.00 90 1013.9
20260903011611 77 0 0.0 0.0 0.00 0.00 0.00 89 1013.8
20260903010106 77 0 0.0 0.0 0.00 0.00 0.00 89 1013.8
20260903004606 78 0 0.0 0.0 0.00 0.00 0.00 89 1013.7
20260903003104 79 0 0.0 0.0 0.00 0.00 0.00 88 1013.7
20260903001608 80 0 0.0 0.0 0.00 0.00 0.00 88 1013.7
20260903000107 81 0 0.0 0.0 0.00 0.00 0.00 87 1013.6
20260902234606 82 0 0.0 0.0 0.00 0.00 0.00 86 1013.7
20260902233106 84 0 0.0 0.0 0.00 0.00 0.00 84 1013.7
20260902231610 87 0 0.0 0.0 0.00 0.00 0.00 81 1013.6
20260902230107 89 0 0.0 0.0 0.00 0.00 0.00 79 1013.7
20260902224606 90 0 0.0 0.0 0.00 0.00 0.00 77 1013.8
20260902223108 92 0 0.0 0.0 0.00 0.00 0.00 75 1013.9
20260902221609 94 0 0.0 0.0 0.00 0.00 0.00 72 1013.9
20260902220109 95 0 0.0 0.0 0.00 0.00 0.00 68 1014.0
20260902214604 96 0 0.0 0.0 0.00 0.00 0.00 66 1014.1
20260902213111 96 0 0.0 0.0 0.00 0.00 0.00 65 1014.1
20260902211608 96 0 0.0 0.0 0.00 0.00 0.00 57 1014.2
20260902210106 96 0 0.0 0.0 0.00 0.00 0.00 56 1014.3
20260902204607 96 0 0.0 2.0 0.00 0.00 0.00 57 1014.3
20260902203107 96 0 0.0 1.0 0.00 0.00 0.00 56 1014.4